User: anonymous   Login
Location: Caltech
(34.1382°N, 118.1253°W)
Time: 19:36:14
(UTC-08:00)
Language:

SPOT 1/Viking Rocket - Orbit

View from above orbital plane
View from above orbital plane
View from above satellite
View from above satellite

Ground track
Ground track

The orbit data is extracted from the following two-line orbital elements,

1 16615U 86019C   16042.84144137  .00000127  00000-0  64282-4 0  9994
2 16615  98.6751 106.2493 0012574  54.9236  76.3881 14.31565528569193
Epoch (UTC): 11 February 2016 20:11:40
Eccentricity: 0.0012574
inclination: 98.6751°
perigee height: 777 km
apogee height: 795 km
right ascension of ascending node: 106.2493°
argument of perigee: 54.9236°
revolutions per day: 14.31565528
mean anomaly at epoch: 76.3881°
orbit number at epoch: 56919

The dashed part of the orbit path shows where the satellite is in the earth's shadow,  

DLR